Location: Pebble Beach Sunset Acres
(33.0837°N, 96.4508°W)
Time: 14:04:12
(UTC+00:00)

DELTA 2 R/B (1) - Pass Details

Date: 01 July 2022
Orbit: 790 x 802 km, 39.6° (Epoch: 18 August)

Event Time Altitude Azimuth Distance (km) Brightness Sun altitude
Rises 03:19:03 0° 293° (WNW) 3,296 8.1 -17.7°
Reaches altitude 10° 03:21:32 10° 291° (WNW) 2,366 7.0 -18.1°
Maximum altitude 03:27:06 73° 208° (SSW) 835 3.6 -18.9°
Enters shadow 03:29:22 37° 133° (SE) 1,229 4.0 -19.3°
